| time (UTC) | temp F | wind direction | speed knots | gust knots | rain 1hr in | rain 24hr in | rain mn in | humidity % | barometer mb |
| 20260902202740 | 60 | 202 | 0.0 | 0.0 | 0.00 | 0.00 | 0.00 | 85 | 1019.9 |
| 20260902202240 | 60 | 184 | 0.0 | 0.0 | 0.00 | 0.00 | 0.00 | 85 | 1019.7 |
| 20260902201740 | 60 | 201 | 0.0 | 0.0 | 0.00 | 0.00 | 0.00 | 85 | 1019.9 |
| 20260902201239 | 60 | 200 | 0.0 | 0.0 | 0.00 | 0.00 | 0.00 | 85 | 1020.0 |
| 20260902200739 | 60 | 188 | 0.0 | 0.0 | 0.00 | 0.00 | 0.00 | 85 | 1019.8 |
| 20260902200239 | 60 | 204 | 0.0 | 0.0 | 0.00 | 0.00 | 0.00 | 85 | 1019.9 |
| 20260902195740 | 60 | 189 | 0.0 | 0.0 | 0.00 | 0.00 | 0.00 | 85 | 1019.9 |
| 20260902195239 | 60 | 203 | 0.0 | 0.0 | 0.00 | 0.00 | 0.00 | 84 | 1020.1 |
| 20260902194739 | 60 | 212 | 0.0 | 0.0 | 0.00 | 0.00 | 0.00 | 84 | 1019.9 |
| 20260902194240 | 60 | 198 | 0.0 | 0.0 | 0.00 | 0.00 | 0.00 | 84 | 1020.0 |
| 20260902193740 | 60 | 192 | 0.0 | 0.0 | 0.00 | 0.00 | 0.00 | 84 | 1020.0 |
| 20260902193240 | 60 | 192 | 0.0 | 0.0 | 0.00 | 0.00 | 0.00 | 84 | 1020.0 |
| 20260902192740 | 60 | 203 | 0.0 | 0.0 | 0.00 | 0.00 | 0.00 | 84 | 1020.0 |
| 20260902192240 | 60 | 198 | 0.0 | 0.0 | 0.00 | 0.00 | 0.00 | 84 | 1020.0 |
| 20260902191740 | 60 | 198 | 0.0 | 0.0 | 0.00 | 0.00 | 0.00 | 84 | 1020.0 |
| 20260902191240 | 60 | 204 | 0.0 | 0.0 | 0.00 | 0.00 | 0.00 | 83 | 1020.1 |
| 20260902190740 | 60 | 194 | 0.0 | 0.0 | 0.00 | 0.00 | 0.00 | 83 | 1020.1 |
| 20260902190239 | 61 | 190 | 0.0 | 0.0 | 0.00 | 0.00 | 0.00 | 83 | 1020.0 |
| 20260902185739 | 61 | 204 | 0.0 | 0.0 | 0.00 | 0.00 | 0.00 | 83 | 1020.0 |
| 20260902185239 | 61 | 229 | 0.0 | 0.0 | 0.00 | 0.00 | 0.00 | 82 | 1019.9 |
| 20260902184739 | 61 | 253 | 0.0 | 0.0 | 0.00 | 0.00 | 0.00 | 82 | 1020.1 |
| 20260902184239 | 61 | 258 | 0.0 | 0.0 | 0.00 | 0.00 | 0.00 | 82 | 1020.1 |
| 20260902183738 | 62 | 287 | 0.0 | 0.0 | 0.00 | 0.00 | 0.00 | 82 | 1020.0 |
| 20260902183238 | 62 | 292 | 0.0 | 0.0 | 0.00 | 0.00 | 0.00 | 81 | 1020.0 |
| 20260902182737 | 62 | 290 | 0.0 | 0.0 | 0.00 | 0.00 | 0.00 | 81 | 1019.8 |
| 20260902182237 | 62 | 291 | 0.0 | 0.0 | 0.00 | 0.00 | 0.00 | 81 | 1019.8 |
| 20260902181738 | 62 | 291 | 0.0 | 0.0 | 0.00 | 0.00 | 0.00 | 80 | 1019.9 |
| 20260902181238 | 62 | 291 | 0.0 | 0.0 | 0.00 | 0.00 | 0.00 | 80 | 1019.9 |
| 20260902180737 | 62 | 281 | 0.0 | 0.0 | 0.00 | 0.00 | 0.00 | 80 | 1019.8 |
| 20260902180238 | 63 | 277 | 0.0 | 0.0 | 0.00 | 0.00 | 0.00 | 80 | 1019.9 |
| 20260902175738 | 63 | 276 | 0.0 | 0.0 | 0.00 | 0.00 | 0.00 | 79 | 1019.7 |
| 20260902175238 | 63 | 281 | 0.0 | 0.0 | 0.00 | 0.00 | 0.00 | 79 | 1019.7 |
| 20260902174738 | 63 | 281 | 0.0 | 0.0 | 0.00 | 0.00 | 0.00 | 78 | 1019.6 |
| 20260902174238 | 64 | 265 | 0.0 | 0.0 | 0.00 | 0.00 | 0.00 | 78 | 1019.6 |
| 20260902173738 | 64 | 258 | 0.0 | 0.0 | 0.00 | 0.00 | 0.00 | 77 | 1019.7 |
| 20260902173238 | 64 | 256 | 0.0 | 0.0 | 0.00 | 0.00 | 0.00 | 77 | 1019.6 |
| 20260902172738 | 64 | 265 | 0.0 | 0.0 | 0.00 | 0.00 | 0.00 | 77 | 1019.5 |
| 20260902172238 | 64 | 276 | 0.0 | 0.0 | 0.00 | 0.00 | 0.00 | 76 | 1019.5 |
| 20260902171738 | 65 | 307 | 0.0 | 0.0 | 0.00 | 0.00 | 0.00 | 75 | 1019.5 |
| 20260902171238 | 65 | 304 | 0.0 | 0.0 | 0.00 | 0.00 | 0.00 | 75 | 1019.5 |
| 20260902170738 | 65 | 331 | 0.0 | 0.0 | 0.00 | 0.00 | 0.00 | 74 | 1019.4 |
| 20260902170238 | 65 | 283 | 0.0 | 0.0 | 0.00 | 0.00 | 0.00 | 74 | 1019.5 |
| 20260902165738 | 66 | 355 | 0.0 | 0.0 | 0.00 | 0.00 | 0.00 | 73 | 1019.6 |
| 20260902165238 | 66 | 334 | 0.0 | 0.0 | 0.00 | 0.00 | 0.00 | 72 | 1019.3 |
| 20260902164738 | 66 | 302 | 0.0 | 0.0 | 0.00 | 0.00 | 0.00 | 72 | 1019.6 |
| 20260902164238 | 67 | 320 | 0.0 | 0.0 | 0.00 | 0.00 | 0.00 | 71 | 1019.5 |
| 20260902163738 | 67 | 277 | 0.0 | 0.0 | 0.00 | 0.00 | 0.00 | 70 | 1019.4 |
| 20260902163238 | 67 | 287 | 0.0 | 2.6 | 0.00 | 0.00 | 0.00 | 70 | 1019.3 |
| 20260902162543 | 67 | 286 | 0.0 | 0.0 | 0.00 | 0.00 | 0.00 | 69 | 1019.2 |
| 20260902162043 | 68 | 275 | 0.9 | 1.7 | 0.00 | 0.00 | 0.00 | 68 | 1019.4 |
| 20260902161543 | 68 | 268 | 0.0 | 0.0 | 0.00 | 0.00 | 0.00 | 67 | 1019.3 |
| 20260902161043 | 68 | 312 | 0.0 | 0.9 | 0.00 | 0.00 | 0.00 | 66 | 1019.3 |
| 20260902160543 | 69 | 291 | 0.9 | 5.2 | 0.00 | 0.00 | 0.00 | 66 | 1019.4 |
| 20260902160043 | 69 | 254 | 3.5 | 5.2 | 0.00 | 0.00 | 0.00 | 65 | 1019.3 |
| 20260902155543 | 69 | 275 | 1.7 | 2.6 | 0.00 | 0.00 | 0.00 | 64 | 1019.3 |
| 20260902155043 | 70 | 291 | 0.0 | 6.1 | 0.00 | 0.00 | 0.00 | 64 | 1019.3 |
| 20260902154543 | 70 | 281 | 1.7 | 5.2 | 0.00 | 0.00 | 0.00 | 63 | 1019.2 |
| 20260902154043 | 70 | 266 | 7.0 | 8.7 | 0.00 | 0.00 | 0.00 | 63 | 1019.2 |
| 20260902153543 | 70 | 50 | 1.7 | 7.0 | 0.00 | 0.00 | 0.00 | 62 | 1019.4 |
| 20260902153043 | 70 | 281 | 4.3 | 7.0 | 0.00 | 0.00 | 0.00 | 63 | 1019.4 |
| 20260902152543 | 71 | 280 | 4.3 | 7.8 | 0.00 | 0.00 | 0.00 | 62 | 1019.5 |
| 20260902152043 | 71 | 276 | 3.5 | 6.1 | 0.00 | 0.00 | 0.00 | 62 | 1019.5 |
| 20260902151543 | 71 | 261 | 3.5 | 7.8 | 0.00 | 0.00 | 0.00 | 62 | 1019.4 |
| 20260902151043 | 71 | 228 | 3.5 | 6.1 | 0.00 | 0.00 | 0.00 | 61 | 1019.5 |
| 20260902150543 | 71 | 280 | 4.3 | 7.0 | 0.00 | 0.00 | 0.00 | 61 | 1019.4 |
| 20260902150043 | 71 | 268 | 5.2 | 9.6 | 0.00 | 0.00 | 0.00 | 61 | 1019.4 |
| 20260902145543 | 71 | 282 | 5.2 | 13.0 | 0.00 | 0.00 | 0.00 | 61 | 1019.4 |
| 20260902145043 | 71 | 306 | 3.5 | 3.5 | 0.00 | 0.00 | 0.00 | 61 | 1019.3 |
| 20260902144542 | 71 | 288 | 3.5 | 6.1 | 0.00 | 0.00 | 0.00 | 60 | 1019.7 |
| 20260902144043 | 72 | 356 | 3.5 | 9.6 | 0.00 | 0.00 | 0.00 | 60 | 1019.7 |
| 20260902143543 | 72 | 273 | 6.1 | 9.6 | 0.00 | 0.00 | 0.00 | 60 | 1019.5 |
| 20260902143043 | 72 | 294 | 7.0 | 13.0 | 0.00 | 0.00 | 0.00 | 60 | 1019.7 |
| 20260902142543 | 72 | 277 | 3.5 | 8.7 | 0.00 | 0.00 | 0.00 | 60 | 1019.7 |
| 20260902142043 | 72 | 290 | 5.2 | 9.6 | 0.00 | 0.00 | 0.00 | 60 | 1019.7 |
| 20260902141543 | 72 | 350 | 3.5 | 8.7 | 0.00 | 0.00 | 0.00 | 60 | 1019.8 |
| 20260902141043 | 72 | 286 | 8.7 | 13.0 | 0.00 | 0.00 | 0.00 | 60 | 1019.6 |
| 20260902140543 | 72 | 51 | 6.1 | 9.6 | 0.00 | 0.00 | 0.00 | 60 | 1019.8 |
| 20260902140043 | 72 | 283 | 5.2 | 9.6 | 0.00 | 0.00 | 0.00 | 60 | 1019.7 |
| 20260902135543 | 72 | 252 | 7.8 | 12.2 | 0.00 | 0.00 | 0.00 | 60 | 1019.8 |
| 20260902135043 | 72 | 270 | 7.8 | 11.3 | 0.00 | 0.00 | 0.00 | 60 | 1019.7 |
| 20260902134543 | 72 | 256 | 4.3 | 6.1 | 0.00 | 0.00 | 0.00 | 60 | 1019.7 |
| 20260902134043 | 72 | 243 | 5.2 | 11.3 | 0.00 | 0.00 | 0.00 | 61 | 1019.8 |
| 20260902133543 | 72 | 272 | 8.7 | 13.0 | 0.00 | 0.00 | 0.00 | 61 | 1019.8 |
| 20260902133043 | 72 | 242 | 6.1 | 12.2 | 0.00 | 0.00 | 0.00 | 61 | 1019.7 |
| 20260902132543 | 72 | 262 | 7.0 | 11.3 | 0.00 | 0.00 | 0.00 | 62 | 1019.6 |
| 20260902132043 | 71 | 286 | 2.6 | 7.0 | 0.00 | 0.00 | 0.00 | 62 | 1019.8 |
| 20260902131543 | 71 | 280 | 2.6 | 6.1 | 0.00 | 0.00 | 0.00 | 62 | 1019.8 |
| 20260902131043 | 71 | 259 | 4.3 | 8.7 | 0.00 | 0.00 | 0.00 | 62 | 1019.8 |
| 20260902130543 | 71 | 291 | 6.1 | 7.8 | 0.00 | 0.00 | 0.00 | 62 | 1019.9 |
| 20260902130043 | 72 | 301 | 6.1 | 9.6 | 0.00 | 0.00 | 0.00 | 62 | 1019.9 |
| 20260902125543 | 72 | 243 | 6.1 | 9.6 | 0.00 | 0.00 | 0.00 | 62 | 1019.8 |
| 20260902125043 | 72 | 271 | 5.2 | 7.0 | 0.00 | 0.00 | 0.00 | 62 | 1019.6 |
| 20260902124543 | 71 | 278 | 7.0 | 9.6 | 0.00 | 0.00 | 0.00 | 62 | 1019.9 |
| 20260902124043 | 72 | 310 | 5.2 | 8.7 | 0.00 | 0.00 | 0.00 | 62 | 1019.7 |
| 20260902123543 | 72 | 269 | 7.8 | 9.6 | 0.00 | 0.00 | 0.00 | 61 | 1020.0 |
| 20260902123043 | 72 | 251 | 2.6 | 7.8 | 0.00 | 0.00 | 0.00 | 61 | 1019.8 |
| 20260902122543 | 73 | 282 | 8.7 | 13.0 | 0.00 | 0.00 | 0.00 | 61 | 1019.8 |
| 20260902122042 | 73 | 261 | 3.5 | 12.2 | 0.00 | 0.00 | 0.00 | 62 | 1019.9 |
| 20260902121543 | 72 | 253 | 3.5 | 12.2 | 0.00 | 0.00 | 0.00 | 61 | 1019.9 |
| 20260902121043 | 73 | 288 | 6.1 | 13.0 | 0.00 | 0.00 | 0.00 | 61 | 1020.0 |
| 20260902120543 | 73 | 299 | 4.3 | 9.6 | 0.00 | 0.00 | 0.00 | 61 | 1019.9 |
| 20260902120043 | 73 | 287 | 1.7 | 7.8 | 0.00 | 0.00 | 0.00 | 62 | 1019.9 |
| 20260902115543 | 73 | 244 | 2.6 | 7.8 | 0.00 | 0.00 | 0.00 | 62 | 1019.8 |
| 20260902115043 | 73 | 288 | 3.5 | 5.2 | 0.00 | 0.00 | 0.00 | 62 | 1020.0 |
| 20260902114543 | 73 | 318 | 4.3 | 11.3 | 0.00 | 0.00 | 0.00 | 62 | 1019.8 |
| 20260902114043 | 73 | 189 | 0.9 | 6.1 | 0.00 | 0.00 | 0.00 | 64 | 1020.2 |
| 20260902113543 | 72 | 251 | 3.5 | 6.1 | 0.00 | 0.00 | 0.00 | 65 | 1020.1 |
| 20260902113043 | 71 | 260 | 3.5 | 8.7 | 0.00 | 0.00 | 0.00 | 66 | 1020.0 |
| 20260902112543 | 71 | 286 | 4.3 | 6.1 | 0.00 | 0.00 | 0.00 | 67 | 1020.1 |
| 20260902112043 | 70 | 274 | 5.2 | 7.0 | 0.00 | 0.00 | 0.00 | 67 | 1020.2 |
| 20260902111543 | 70 | 259 | 2.6 | 7.0 | 0.00 | 0.00 | 0.00 | 66 | 1020.3 |
| 20260902111043 | 71 | 290 | 4.3 | 6.1 | 0.00 | 0.00 | 0.00 | 66 | 1020.3 |
| 20260902110543 | 71 | 269 | 3.5 | 8.7 | 0.00 | 0.00 | 0.00 | 66 | 1020.3 |
| 20260902110043 | 71 | 300 | 3.5 | 7.8 | 0.00 | 0.00 | 0.00 | 66 | 1020.2 |
| 20260902105543 | 71 | 265 | 3.5 | 6.1 | 0.00 | 0.00 | 0.00 | 66 | 1020.4 |
| 20260902105043 | 71 | 283 | 4.3 | 6.1 | 0.00 | 0.00 | 0.00 | 65 | 1020.3 |
| 20260902104543 | 71 | 250 | 3.5 | 7.8 | 0.00 | 0.00 | 0.00 | 65 | 1020.4 |
| 20260902104043 | 72 | 299 | 3.5 | 5.2 | 0.00 | 0.00 | 0.00 | 65 | 1020.2 |
| 20260902103543 | 72 | 286 | 4.3 | 6.1 | 0.00 | 0.00 | 0.00 | 66 | 1020.4 |
| 20260902103043 | 72 | 302 | 2.6 | 7.8 | 0.00 | 0.00 | 0.00 | 66 | 1020.4 |
| 20260902102543 | 72 | 277 | 1.7 | 2.6 | 0.00 | 0.00 | 0.00 | 67 | 1020.5 |
| 20260902102043 | 72 | 282 | 2.6 | 7.0 | 0.00 | 0.00 | 0.00 | 66 | 1020.5 |
| 20260902101543 | 72 | 279 | 4.3 | 7.8 | 0.00 | 0.00 | 0.00 | 65 | 1020.4 |
| 20260902101043 | 72 | 290 | 4.3 | 7.8 | 0.00 | 0.00 | 0.00 | 66 | 1020.5 |
| 20260902100543 | 72 | 312 | 5.2 | 7.0 | 0.00 | 0.00 | 0.00 | 67 | 1020.5 |
| 20260902100043 | 72 | 260 | 5.2 | 8.7 | 0.00 | 0.00 | 0.00 | 67 | 1020.5 |
| 20260902095543 | 72 | 286 | 5.2 | 7.0 | 0.00 | 0.00 | 0.00 | 67 | 1020.5 |
| 20260902095043 | 71 | 288 | 7.8 | 9.6 | 0.00 | 0.00 | 0.00 | 67 | 1020.6 |
| 20260902094543 | 71 | 274 | 6.1 | 8.7 | 0.00 | 0.00 | 0.00 | 68 | 1020.4 |
| 20260902094043 | 71 | 264 | 5.2 | 9.6 | 0.00 | 0.00 | 0.00 | 68 | 1020.4 |
| 20260902093543 | 71 | 280 | 3.5 | 7.8 | 0.00 | 0.00 | 0.00 | 67 | 1020.7 |
| 20260902093043 | 72 | 240 | 6.1 | 7.0 | 0.00 | 0.00 | 0.00 | 68 | 1020.5 |
| 20260902092543 | 73 | 273 | 3.5 | 6.1 | 0.00 | 0.00 | 0.00 | 68 | 1020.5 |
| 20260902092043 | 72 | 264 | 6.1 | 7.8 | 0.00 | 0.00 | 0.00 | 70 | 1020.4 |
| 20260902091543 | 72 | 350 | 4.3 | 7.8 | 0.00 | 0.00 | 0.00 | 71 | 1020.4 |
| 20260902091043 | 71 | 281 | 2.6 | 5.2 | 0.00 | 0.00 | 0.00 | 71 | 1020.3 |
| 20260902090543 | 71 | 269 | 6.1 | 8.7 | 0.00 | 0.00 | 0.00 | 72 | 1020.4 |
| 20260902090043 | 71 | 304 | 1.7 | 7.0 | 0.00 | 0.00 | 0.00 | 73 | 1020.4 |
| 20260902085543 | 70 | 312 | 3.5 | 7.8 | 0.00 | 0.00 | 0.00 | 73 | 1020.4 |
| 20260902085043 | 70 | 278 | 1.7 | 6.1 | 0.00 | 0.00 | 0.00 | 74 | 1020.4 |
| 20260902084543 | 69 | 261 | 1.7 | 6.1 | 0.00 | 0.00 | 0.00 | 75 | 1020.5 |
| 20260902084043 | 69 | 289 | 0.0 | 2.6 | 0.00 | 0.00 | 0.00 | 75 | 1020.5 |
| 20260902083543 | 69 | 288 | 1.7 | 2.6 | 0.00 | 0.00 | 0.00 | 75 | 1020.6 |
| 20260902083043 | 69 | 269 | 1.7 | 6.1 | 0.00 | 0.00 | 0.00 | 75 | 1020.5 |
| 20260902082542 | 69 | 287 | 5.2 | 6.1 | 0.00 | 0.00 | 0.00 | 76 | 1020.5 |
| 20260902082043 | 68 | 284 | 2.6 | 5.2 | 0.00 | 0.00 | 0.00 | 76 | 1020.4 |
| 20260902081543 | 68 | 274 | 5.2 | 6.1 | 0.00 | 0.00 | 0.00 | 77 | 1020.4 |
| 20260902081043 | 68 | 200 | 1.7 | 2.6 | 0.00 | 0.00 | 0.00 | 78 | 1020.3 |
| 20260902080543 | 67 | 261 | 0.0 | 2.6 | 0.00 | 0.00 | 0.00 | 79 | 1020.5 |
| 20260902080042 | 67 | 230 | 0.9 | 1.7 | 0.00 | 0.00 | 0.00 | 79 | 1020.3 |
| 20260902075543 | 66 | 262 | 1.7 | 2.6 | 0.00 | 0.00 | 0.00 | 79 | 1020.3 |
| 20260902075043 | 66 | 255 | 3.5 | 5.2 | 0.00 | 0.00 | 0.00 | 79 | 1020.3 |
| 20260902074543 | 66 | 273 | 3.5 | 7.0 | 0.00 | 0.00 | 0.00 | 79 | 1020.2 |
| 20260902074043 | 66 | 274 | 3.5 | 7.8 | 0.00 | 0.00 | 0.00 | 80 | 1020.2 |
| 20260902073543 | 66 | 273 | 1.7 | 5.2 | 0.00 | 0.00 | 0.00 | 80 | 1020.4 |
| 20260902073043 | 65 | 306 | 1.7 | 6.1 | 0.00 | 0.00 | 0.00 | 80 | 1020.2 |
| 20260902072543 | 65 | 312 | 3.5 | 7.0 | 0.00 | 0.00 | 0.00 | 81 | 1020.2 |
| 20260902072043 | 65 | 281 | 7.0 | 7.8 | 0.00 | 0.00 | 0.00 | 81 | 1020.1 |
| 20260902071543 | 65 | 263 | 3.5 | 6.1 | 0.00 | 0.00 | 0.00 | 82 | 1020.2 |
| 20260902071043 | 65 | 302 | 0.9 | 1.7 | 0.00 | 0.00 | 0.00 | 83 | 1020.1 |
| 20260902070542 | 64 | 288 | 2.6 | 5.2 | 0.00 | 0.00 | 0.00 | 83 | 1020.2 |
| 20260902070043 | 64 | 196 | 0.9 | 6.1 | 0.00 | 0.00 | 0.00 | 83 | 1020.0 |
| 20260902065542 | 63 | 249 | 0.9 | 6.1 | 0.00 | 0.00 | 0.00 | 83 | 1020.1 |
| 20260902065043 | 63 | 282 | 2.6 | 3.5 | 0.00 | 0.00 | 0.00 | 83 | 1020.1 |
| 20260902064543 | 63 | 280 | 3.5 | 9.6 | 0.00 | 0.00 | 0.00 | 83 | 1019.8 |
| 20260902064043 | 63 | 301 | 2.6 | 6.1 | 0.00 | 0.00 | 0.00 | 84 | 1020.1 |
| 20260902063543 | 63 | 280 | 3.5 | 5.2 | 0.00 | 0.00 | 0.00 | 84 | 1020.0 |
| 20260902063043 | 63 | 272 | 1.7 | 3.5 | 0.00 | 0.00 | 0.00 | 84 | 1019.8 |
| 20260902062543 | 63 | 199 | 0.9 | 3.5 | 0.00 | 0.00 | 0.00 | 84 | 1020.0 |
| 20260902062043 | 63 | 260 | 3.5 | 7.0 | 0.00 | 0.00 | 0.00 | 85 | 1019.8 |
| 20260902061543 | 62 | 206 | 0.9 | 5.2 | 0.00 | 0.00 | 0.00 | 85 | 1019.9 |
| 20260902061043 | 62 | 308 | 1.7 | 8.7 | 0.00 | 0.00 | 0.00 | 85 | 1019.8 |
| 20260902060543 | 62 | 283 | 5.2 | 7.0 | 0.00 | 0.00 | 0.00 | 85 | 1019.7 |
| 20260902060043 | 62 | 246 | 0.9 | 5.2 | 0.00 | 0.00 | 0.00 | 86 | 1020.1 |
| 20260902055543 | 61 | 279 | 0.9 | 3.5 | 0.00 | 0.00 | 0.00 | 86 | 1019.8 |
| 20260902055043 | 61 | 273 | 0.9 | 5.2 | 0.00 | 0.00 | 0.00 | 86 | 1019.9 |
| 20260902054543 | 61 | 260 | 0.9 | 5.2 | 0.00 | 0.00 | 0.00 | 86 | 1019.8 |
| 20260902054043 | 61 | 205 | 0.9 | 2.6 | 0.00 | 0.00 | 0.00 | 86 | 1019.9 |
| 20260902053543 | 61 | 232 | 0.9 | 2.6 | 0.00 | 0.00 | 0.00 | 86 | 1019.7 |
| 20260902053043 | 61 | 235 | 1.7 | 3.5 | 0.00 | 0.00 | 0.00 | 86 | 1019.6 |
| 20260902052542 | 61 | 293 | 2.6 | 3.5 | 0.00 | 0.00 | 0.00 | 86 | 1019.5 |
| 20260902052043 | 60 | 184 | 0.9 | 2.6 | 0.00 | 0.00 | 0.00 | 86 | 1019.7 |
| 20260902051543 | 60 | 241 | 0.9 | 1.7 | 0.00 | 0.00 | 0.00 | 86 | 1019.5 |
| 20260902051042 | 61 | 251 | 0.9 | 0.9 | 0.00 | 0.00 | 0.00 | 87 | 1019.5 |
| 20260902050543 | 60 | 235 | 0.0 | 2.6 | 0.00 | 0.00 | 0.00 | 89 | 1019.5 |
| 20260902050043 | 59 | 260 | 0.0 | 0.9 | 0.00 | 0.00 | 0.00 | 90 | 1019.4 |
| 20260902045543 | 59 | 182 | 0.0 | 1.7 | 0.00 | 0.00 | 0.00 | 90 | 1019.3 |
| 20260902045043 | 58 | 172 | 0.0 | 0.0 | 0.00 | 0.00 | 0.00 | 89 | 1019.4 |
| 20260902044543 | 58 | 265 | 0.0 | 0.0 | 0.00 | 0.00 | 0.00 | 89 | 1019.4 |
| 20260902044043 | 58 | 207 | 0.0 | 0.0 | 0.00 | 0.00 | 0.00 | 89 | 1019.2 |
| 20260902043543 | 58 | 184 | 0.0 | 0.0 | 0.00 | 0.00 | 0.00 | 89 | 1019.4 |
| 20260902043043 | 58 | 221 | 0.0 | 1.7 | 0.00 | 0.00 | 0.00 | 89 | 1019.4 |
| 20260902042543 | 58 | 227 | 0.0 | 0.9 | 0.00 | 0.00 | 0.00 | 89 | 1019.3 |
| 20260902042043 | 58 | 239 | 0.0 | 2.6 | 0.00 | 0.00 | 0.00 | 89 | 1019.2 |
| 20260902041543 | 58 | 239 | 0.0 | 0.0 | 0.00 | 0.00 | 0.00 | 89 | 1019.1 |
| 20260902041043 | 58 | 245 | 0.0 | 0.0 | 0.00 | 0.00 | 0.00 | 88 | 1019.1 |
| 20260902040543 | 58 | 179 | 0.0 | 0.9 | 0.00 | 0.00 | 0.00 | 88 | 1019.2 |
| 20260902040042 | 58 | 217 | 0.0 | 0.9 | 0.00 | 0.00 | 0.00 | 88 | 1019.2 |
| 20260902035543 | 58 | 215 | 0.0 | 0.9 | 0.00 | 0.00 | 0.00 | 88 | 1019.1 |
| 20260902035042 | 58 | 218 | 0.0 | 3.5 | 0.00 | 0.00 | 0.00 | 88 | 1019.2 |
| 20260902034543 | 58 | 231 | 0.9 | 1.7 | 0.00 | 0.00 | 0.00 | 88 | 1019.1 |
| 20260902034043 | 58 | 216 | 0.0 | 0.0 | 0.00 | 0.00 | 0.00 | 88 | 1019.0 |
| 20260902033543 | 58 | 221 | 0.0 | 0.0 | 0.00 | 0.00 | 0.00 | 88 | 1019.0 |
| 20260902033043 | 58 | 247 | 0.0 | 0.0 | 0.00 | 0.00 | 0.00 | 88 | 1019.0 |
| 20260902032543 | 59 | 225 | 0.0 | 0.0 | 0.00 | 0.00 | 0.00 | 87 | 1018.9 |
| 20260902032043 | 59 | 211 | 0.0 | 0.0 | 0.00 | 0.00 | 0.00 | 87 | 1019.2 |
| 20260902031543 | 59 | 192 | 0.0 | 0.0 | 0.00 | 0.00 | 0.00 | 87 | 1019.0 |
| 20260902031043 | 59 | 225 | 0.0 | 0.0 | 0.00 | 0.00 | 0.00 | 87 | 1019.1 |
| 20260902030543 | 59 | 241 | 0.0 | 0.9 | 0.00 | 0.00 | 0.00 | 87 | 1019.2 |
| 20260902030042 | 59 | 291 | 0.0 | 0.9 | 0.00 | 0.00 | 0.00 | 87 | 1019.1 |
| 20260902025543 | 59 | 264 | 0.0 | 2.6 | 0.00 | 0.00 | 0.00 | 87 | 1019.0 |
| 20260902025043 | 59 | 90 | 0.0 | 0.9 | 0.00 | 0.00 | 0.00 | 87 | 1019.1 |
| 20260902024543 | 59 | 291 | 0.9 | 0.9 | 0.00 | 0.00 | 0.00 | 88 | 1018.9 |
| 20260902024043 | 59 | 215 | 0.0 | 0.9 | 0.00 | 0.00 | 0.00 | 88 | 1019.0 |
| 20260902023542 | 59 | 183 | 1.7 | 1.7 | 0.00 | 0.00 | 0.00 | 88 | 1019.1 |
| 20260902023043 | 59 | 206 | 0.0 | 0.9 | 0.00 | 0.00 | 0.00 | 88 | 1019.1 |
| 20260902022543 | 59 | 229 | 0.0 | 0.9 | 0.00 | 0.00 | 0.00 | 88 | 1019.2 |
| 20260902022043 | 59 | 284 | 0.9 | 2.6 | 0.00 | 0.00 | 0.00 | 88 | 1019.1 |
| 20260902021543 | 59 | 264 | 0.0 | 0.9 | 0.00 | 0.00 | 0.00 | 88 | 1019.1 |
| 20260902021043 | 59 | 282 | 0.0 | 2.6 | 0.00 | 0.00 | 0.00 | 88 | 1019.0 |
| 20260902020543 | 59 | 202 | 0.0 | 1.7 | 0.00 | 0.00 | 0.00 | 88 | 1019.1 |
| 20260902020043 | 59 | 234 | 1.7 | 2.6 | 0.00 | 0.00 | 0.00 | 88 | 1019.1 |
| 20260902015543 | 59 | 289 | 1.7 | 2.6 | 0.00 | 0.00 | 0.00 | 88 | 1019.0 |
| 20260902015043 | 59 | 226 | 0.0 | 0.9 | 0.00 | 0.00 | 0.00 | 88 | 1018.9 |
| 20260902014543 | 59 | 241 | 0.0 | 0.0 | 0.00 | 0.00 | 0.00 | 88 | 1019.2 |
| 20260902014043 | 59 | 270 | 0.0 | 0.9 | 0.00 | 0.00 | 0.00 | 88 | 1019.1 |
| 20260902013543 | 59 | 236 | 0.0 | 0.0 | 0.00 | 0.00 | 0.00 | 88 | 1019.1 |
| 20260902013043 | 59 | 282 | 0.0 | 1.7 | 0.00 | 0.00 | 0.00 | 88 | 1019.1 |
| 20260902012543 | 59 | 283 | 0.9 | 1.7 | 0.00 | 0.00 | 0.00 | 88 | 1019.1 |
| 20260902012043 | 59 | 284 | 2.6 | 5.2 | 0.00 | 0.00 | 0.00 | 88 | 1019.3 |
| 20260902011543 | 59 | 289 | 1.7 | 3.5 | 0.00 | 0.00 | 0.00 | 88 | 1019.1 |
| 20260902011043 | 60 | 260 | 0.0 | 0.0 | 0.00 | 0.00 | 0.00 | 88 | 1019.3 |
| 20260902010543 | 60 | 258 | 1.7 | 1.7 | 0.00 | 0.00 | 0.00 | 88 | 1019.2 |
| 20260902010043 | 60 | 278 | 1.7 | 2.6 | 0.00 | 0.00 | 0.00 | 88 | 1019.3 |
| 20260902005543 | 60 | 274 | 0.0 | 0.9 | 0.00 | 0.00 | 0.00 | 87 | 1019.2 |
| 20260902005043 | 60 | 274 | 0.0 | 1.7 | 0.00 | 0.00 | 0.00 | 87 | 1019.3 |
| 20260902004543 | 60 | 267 | 0.9 | 2.6 | 0.00 | 0.00 | 0.00 | 87 | 1019.1 |
| 20260902004043 | 60 | 259 | 0.0 | 0.0 | 0.00 | 0.00 | 0.00 | 87 | 1019.2 |
| 20260902003543 | 60 | 266 | 0.0 | 0.0 | 0.00 | 0.00 | 0.00 | 87 | 1019.1 |
| 20260902003043 | 60 | 264 | 0.0 | 0.0 | 0.00 | 0.00 | 0.00 | 87 | 1019.0 |
| 20260902002543 | 60 | 267 | 0.0 | 0.0 | 0.00 | 0.00 | 0.00 | 87 | 1019.0 |
| 20260902002043 | 60 | 268 | 0.0 | 0.0 | 0.00 | 0.00 | 0.00 | 87 | 1019.1 |
| 20260902001543 | 60 | 265 | 0.0 | 0.0 | 0.00 | 0.00 | 0.00 | 87 | 1019.0 |
| 20260902001043 | 60 | 259 | 0.0 | 0.0 | 0.00 | 0.00 | 0.00 | 86 | 1019.0 |
| 20260902000543 | 60 | 259 | 0.0 | 0.0 | 0.00 | 0.00 | 0.00 | 86 | 1019.0 |
| 20260902000043 | 60 | 259 | 0.0 | 0.0 | 0.00 | 0.00 | 0.00 | 86 | 1019.2 |
| 20260901235543 | 60 | 252 | 0.0 | 1.7 | 0.00 | 0.00 | 0.00 | 85 | 1019.1 |
| 20260901235043 | 60 | 28 | 0.0 | 0.0 | 0.00 | 0.00 | 0.00 | 85 | 1019.0 |
| 20260901234543 | 61 | 163 | 0.0 | 0.9 | 0.00 | 0.00 | 0.00 | 85 | 1018.9 |
| 20260901234043 | 61 | 343 | 0.0 | 1.7 | 0.00 | 0.00 | 0.00 | 84 | 1019.1 |
| 20260901233543 | 61 | 325 | 0.0 | 0.0 | 0.00 | 0.00 | 0.00 | 84 | 1018.9 |
| 20260901233043 | 61 | 195 | 0.0 | 0.0 | 0.00 | 0.00 | 0.00 | 84 | 1018.8 |
| 20260901232543 | 61 | 249 | 0.0 | 0.9 | 0.00 | 0.00 | 0.00 | 84 | 1018.7 |
| 20260901232043 | 61 | 222 | 0.0 | 1.7 | 0.00 | 0.00 | 0.00 | 84 | 1019.0 |
| 20260901231543 | 62 | 271 | 0.0 | 0.0 | 0.00 | 0.00 | 0.00 | 84 | 1018.7 |
| 20260901231043 | 62 | 260 | 0.0 | 2.6 | 0.00 | 0.00 | 0.00 | 84 | 1018.7 |
| 20260901230543 | 62 | 261 | 0.0 | 0.9 | 0.00 | 0.00 | 0.00 | 83 | 1018.8 |
| 20260901230042 | 62 | 272 | 0.0 | 1.7 | 0.00 | 0.00 | 0.00 | 83 | 1018.7 |
| 20260901225543 | 62 | 226 | 0.0 | 0.9 | 0.00 | 0.00 | 0.00 | 83 | 1018.8 |
| 20260901225043 | 62 | 253 | 0.9 | 0.9 | 0.00 | 0.00 | 0.00 | 83 | 1018.9 |
| 20260901224543 | 62 | 281 | 2.6 | 3.5 | 0.00 | 0.00 | 0.00 | 83 | 1019.0 |
| 20260901224043 | 62 | 268 | 0.9 | 5.2 | 0.00 | 0.00 | 0.00 | 83 | 1018.8 |
| 20260901223543 | 62 | 284 | 1.7 | 3.5 | 0.00 | 0.00 | 0.00 | 83 | 1019.0 |
| 20260901223043 | 62 | 294 | 1.7 | 3.5 | 0.00 | 0.00 | 0.00 | 83 | 1018.9 |
| 20260901222543 | 62 | 289 | 1.7 | 3.5 | 0.00 | 0.00 | 0.00 | 83 | 1018.9 |
| 20260901222043 | 62 | 278 | 3.5 | 6.1 | 0.00 | 0.00 | 0.00 | 83 | 1018.9 |
| 20260901221543 | 62 | 243 | 5.2 | 6.1 | 0.00 | 0.00 | 0.00 | 83 | 1019.0 |
| 20260901221043 | 62 | 281 | 1.7 | 6.1 | 0.00 | 0.00 | 0.00 | 82 | 1018.9 |
| 20260901220543 | 62 | 284 | 3.5 | 6.1 | 0.00 | 0.00 | 0.00 | 82 | 1018.9 |
| 20260901220043 | 62 | 273 | 2.6 | 3.5 | 0.00 | 0.00 | 0.00 | 82 | 1018.9 |
| 20260901215543 | 62 | 281 | 1.7 | 2.6 | 0.00 | 0.00 | 0.00 | 82 | 1019.0 |
| 20260901214536 | 62 | 262 | 4.3 | 5.2 | 0.00 | 0.00 | 0.00 | 82 | 1019.0 |
| 20260901214036 | 62 | 254 | 1.7 | 2.6 | 0.00 | 0.00 | 0.00 | 82 | 1018.8 |
| 20260901213536 | 62 | 255 | 2.6 | 3.5 | 0.00 | 0.00 | 0.00 | 82 | 1018.8 |
| 20260901213036 | 62 | 270 | 2.6 | 5.2 | 0.00 | 0.00 | 0.00 | 82 | 1019.0 |
| 20260901212536 | 62 | 284 | 1.7 | 3.5 | 0.00 | 0.00 | 0.00 | 82 | 1019.0 |
| 20260901212036 | 62 | 219 | 0.9 | 5.2 | 0.00 | 0.00 | 0.00 | 82 | 1019.0 |
| 20260901211536 | 62 | 269 | 0.0 | 2.6 | 0.00 | 0.00 | 0.00 | 83 | 1018.8 |
| 20260901211036 | 62 | 283 | 1.7 | 2.6 | 0.00 | 0.00 | 0.00 | 83 | 1019.0 |
| 20260901210536 | 62 | 287 | 2.6 | 5.2 | 0.00 | 0.00 | 0.00 | 83 | 1019.1 |